User: anonymous   Login
Location: Unspecified
(0.0000°N, 0.0000°E)
Time: 07:24:23
(UTC+00:00)
Language:

N. Korean satellite - Orbit

View from above orbital plane
View from above orbital plane
View from above satellite
View from above satellite

Ground track
Ground track

The orbit data is extracted from the following two-line orbital elements,

1 39026U 12072A   14332.29886015  .00010408  00000-0  52098-3 0  1952
2 39026 097.3095 005.8864 0049210 216.1243 143.6663 15.16505252108225
Epoch (UTC): 28 November 2014 07:10:21
Eccentricity: 0.0049210
inclination: 97.3095°
perigee height: 482 km
apogee height: 550 km
right ascension of ascending node: 5.8864°
argument of perigee: 216.1243°
revolutions per day: 15.16505252
mean anomaly at epoch: 143.6663°
orbit number at epoch: 10822

The dashed part of the orbit path shows where the satellite is in the earth's shadow,  

DLR